STARLINK-32360

Last updated on Sun Oct 06 2024 00:02:04 GMT+0000 (Coordinated Universal Time)

1 61007U 24158T 24279.58335648 -.00420651 00000+0 -16404-2 0 9996 2 61007 53.1471 323.4198 0000896 59.6811 163.8530 15.87310276 5955

Satellite not in orbit